Wind_Speed
21 23 24 24 26 27 29 32 35 35 36 37 39 41 44 47 49 51 52 55 56 58 59 62 61 58 51 49 54 60 65 64 64 60 53 53 52 51 48 42 37 33 27 28
22 26 27 28 31 33 33 34 35 36 39 40 43 46 49 52 54 55 56 58 59 63 65 59 54 53 53 63 67 71 73 72 70 66 59 57 56 52 48 43 37 34 28 28
25 24 27 28 30 31 33 35 38 41 42 44 47 51 56 58 55 56 60 61 60 65 66 73 80 77 77 78 75 71 70 71 73 73 70 64 58 50 45 42 38 35 30 28
28 28 30 33 33 35 38 40 42 44 46 49 46 49 50 52 62 61 71 64 71 75 83 82 82 82 82 80 77 75 74 78 78 72 67 63 58 48 45 43 40 36 30 28
31 31 33 38 41 42 44 45 44 46 48 50 55 58 60 70 76 75 78 83 89 88 88 87 87 87 85 84 85 86 85 81 78 75 70 63 58 51 48 46 43 39 32 30
33 35 37 39 41 43 44 46 47 50 52 56 61 66 69 74 78 81 84 87 90 92 91 91 91 91 88 84 84 82 77 72 69 64 60 55 52 49 52 49 44 41 35 31
32 34 36 37 37 41 45 49 52 57 61 66 71 76 79 80 82 84 85 88 89 88 88 84 81 78 77 73 67 61 53 46 45 42 38 38 42 47 51 51 44 40 39 34
32 33 35 37 42 47 52 57 62 67 72 76 80 82 83 84 84 82 78 74 72 70 65 59 57 55 54 51 46 42 40 37 37 36 36 38 37 37 45 52 49 47 40 39
34 36 42 49 53 56 61 66 71 76 79 82 83 82 79 73 67 62 57 55 51 47 42 43 42 40 39 38 38 37 38 39 40 43 43 39 39 39 41 53 52 45 41 43
43 48 50 54 58 62 68 73 77 79 80 78 73 68 62 59 54 49 42 38 35 37 40 38 38 40 37 36 39 42 42 42 42 41 41 40 35 33 39 54 55 38 38 43
47 50 53 58 63 69 75 79 81 79 72 66 61 58 53 44 40 38 37 39 39 41 42 43 44 45 45 42 39 41 43 43 41 39 38 35 33 36 42 58 64 48 44 39
50 55 59 63 67 73 78 80 78 72 64 55 52 45 42 43 46 49 51 53 54 55 57 58 58 56 53 52 50 46 43 39 38 36 35 33 35 42 44 61 69 54 48 37
56 60 63 68 73 77 79 76 69 61 52 43 38 40 45 49 53 56 61 65 67 66 65 63 60 55 51 50 49 48 45 37 33 31 31 31 33 30 39 60 55 50 48 40
59 62 66 72 76 78 76 68 57 47 38 34 37 43 50 55 58 60 63 67 68 66 61 58 55 49 43 39 38 38 35 31 27 26 26 23 21 28 46 44 48 53 44 41
59 64 71 77 78 77 71 61 48 35 32 35 42 49 54 57 56 58 64 64 61 59 54 49 45 38 32 30 28 27 25 23 21 22 19 17 26 47 44 37 54 49 45 41
63 68 74 77 79 78 68 53 36 31 34 40 47 53 54 56 58 59 62 61 58 56 48 38 29 24 24 24 22 21 19 21 21 21 19 21 38 42 31 43 47 45 43 37
66 70 75 79 80 74 59 39 30 32 38 43 48 52 54 53 53 54 55 56 53 49 42 34 22 15 15 19 21 18 16 19 22 22 19 29 42 35 37 42 39 42 40 34
69 74 77 79 77 66 44 31 30 36 40 45 49 52 54 52 50 50 50 53 49 42 37 31 15 8 11 12 15 18 20 22 24 22 25 40 43 40 39 37 35 37 35 32
70 74 77 74 69 59 40 32 34 38 42 46 50 54 56 55 52 47 45 45 43 40 35 28 20 14 10 11 13 14 18 23 25 28 38 48 40 38 38 35 35 34 33 30
70 74 76 72 65 55 39 35 37 40 43 47 51 56 57 55 48 44 43 40 37 36 36 29 21 17 9 3 5 11 16 24 33 40 51 54 41 39 36 31 31 35 34 30
69 73 75 72 64 52 39 36 37 40 44 49 51 53 52 50 45 41 42 45 40 35 32 31 20 12 11 15 16 18 26 37 44 49 55 48 45 47 42 36 34 32 28 26
69 72 73 71 66 52 38 36 37 40 46 49 50 50 47 46 44 40 41 43 40 37 34 31 22 7 9 15 24 34 41 44 46 49 47 46 47 45 38 36 34 28 24 22
69 71 72 69 66 52 36 34 36 39 44 48 50 49 45 44 45 40 40 41 40 37 30 25 23 25 29 31 33 40 43 42 39 39 41 45 45 40 35 35 32 25 21 19
67 69 70 68 65 51 35 31 34 38 42 45 46 45 43 40 38 39 40 40 41 36 29 25 27 33 35 34 38 40 37 35 35 36 38 39 37 32 30 33 35 30 23 19
67 67 68 66 61 49 34 30 32 36 39 41 41 39 37 37 35 33 34 34 33 32 30 34 40 44 44 40 38 38 39 38 38 37 33 30 28 25 22 26 33 32 24 20
66 67 67 64 58 48 35 32 33 36 38 39 38 34 31 31 30 28 30 31 31 29 30 32 35 37 37 34 35 36 35 35 34 31 27 24 21 19 21 28 35 30 24 20
65 67 67 60 54 46 36 31 31 33 36 39 37 30 26 25 25 25 27 27 25 25 28 29 28 27 27 26 27 27 27 26 24 20 17 15 14 16 19 24 29 29 26 22
Wind_Direction
318 311 308 306 301 296 294 295 297 298 294 293 292 291 290 289 289 289 289 289 289 290 290 289 287 285 286 288 289 294 293 291 294 295 294 292 294 297 297 297 297 302 305 302
318 311 307 306 303 303 302 302 300 300 298 296 294 291 288 286 286 288 286 285 286 287 283 277 277 282 285 290 292 291 290 291 291 287 287 290 291 291 289 288 287 294 298 296
319 312 308 304 302 303 303 304 303 304 301 298 296 295 294 287 281 282 280 272 271 273 276 292 297 294 289 287 287 289 288 285 287 287 288 288 287 285 281 279 279 284 289 287
317 312 307 308 306 307 308 308 307 305 304 299 294 290 283 283 288 283 286 277 280 281 283 288 288 287 284 283 284 285 283 282 282 281 282 281 281 277 268 266 269 275 278 277
313 312 312 312 312 313 313 312 310 307 307 302 299 298 291 290 292 291 287 285 287 287 287 288 287 285 284 283 282 283 283 282 280 277 279 279 274 269 260 257 257 263 268 268
313 312 311 310 314 316 316 312 312 308 304 300 297 295 292 289 286 286 286 285 285 286 287 290 291 290 289 288 286 286 285 281 276 276 276 270 263 254 252 250 248 253 259 260
311 310 313 318 320 317 312 311 309 308 305 302 298 298 297 293 290 290 290 290 289 289 290 293 294 292 292 291 290 286 281 274 269 268 266 260 253 244 241 240 238 245 252 255
321 321 322 324 323 318 316 317 314 311 308 306 304 301 298 296 295 296 298 297 297 296 297 296 294 291 290 289 285 278 268 263 267 270 271 268 262 256 241 223 227 234 244 250
328 328 326 326 324 322 319 317 315 312 310 308 305 304 304 306 307 307 305 301 300 300 301 302 300 296 292 287 285 282 277 271 276 276 274 269 260 251 243 216 211 226 241 247
328 326 325 323 321 320 318 316 314 312 311 310 310 313 315 315 315 317 316 312 307 306 306 307 302 298 295 288 283 282 281 278 276 268 266 266 255 243 237 227 212 211 230 236
323 323 323 322 322 322 319 317 316 316 316 317 316 315 316 321 324 322 315 308 303 302 301 300 300 297 292 288 287 285 282 278 271 265 268 265 251 243 239 230 217 208 210 216
326 326 328 327 325 321 320 321 320 318 319 317 315 317 321 322 321 318 315 311 304 300 299 301 301 297 291 282 281 285 285 278 267 265 265 260 256 257 241 214 207 206 200 193
330 330 331 329 326 325 326 325 322 321 320 321 325 325 322 320 319 317 316 314 308 301 298 297 297 295 290 281 277 278 278 271 266 267 262 259 261 243 204 195 198 191 192 185
332 333 332 330 330 330 329 327 326 326 329 332 330 325 325 327 327 325 325 325 320 309 300 293 290 288 284 278 274 271 267 261 260 261 259 261 248 199 181 187 189 184 185 186
334 335 335 334 334 334 333 332 333 336 337 333 328 328 329 333 332 331 332 332 330 326 317 309 297 288 276 270 268 257 250 248 245 243 239 242 202 186 182 180 175 181 184 187
338 338 337 336 337 338 338 338 341 341 337 333 335 336 335 336 337 335 337 336 333 334 326 318 304 287 267 256 252 246 238 232 222 213 218 209 189 184 178 169 175 176 180 183
339 339 339 340 341 341 342 343 342 341 338 336 338 338 340 337 337 339 343 342 341 343 339 332 313 285 267 249 241 236 227 217 207 204 209 187 178 166 163 173 178 176 179 184
340 341 341 343 344 343 345 343 340 337 336 337 341 341 340 337 337 338 344 348 352 356 351 349 342 289 279 264 247 232 222 215 203 203 185 173 167 158 156 171 176 174 179 187
341 342 343 345 345 343 344 342 339 336 337 340 343 342 343 342 341 341 348 356 360 3 3 357 3 357 325 287 250 225 210 200 194 182 171 163 155 162 164 169 174 176 179 185
342 343 343 346 347 343 341 338 338 338 339 343 344 344 348 350 349 348 352 354 357 355 1 359 2 11 24 58 181 181 174 172 165 162 163 161 158 162 161 163 169 172 181 186
342 343 342 346 348 344 337 337 338 339 341 345 345 346 351 352 352 354 352 353 354 8 13 8 357 8 71 97 109 124 136 146 151 153 156 158 163 168 167 169 173 171 172 178
343 343 342 346 348 346 337 337 339 341 343 346 347 349 351 350 355 357 2 5 6 11 18 20 23 49 125 113 114 119 124 134 142 147 150 155 160 166 168 170 167 163 166 174
342 342 343 346 347 347 339 338 340 344 345 347 349 350 354 353 358 4 10 12 18 21 22 33 59 95 113 114 110 112 122 129 133 139 146 152 158 166 174 174 168 163 168 178
341 342 344 345 347 347 342 339 340 344 348 349 351 351 354 2 9 12 14 18 24 30 40 58 84 95 96 98 106 112 114 117 122 131 143 157 165 173 179 180 178 173 176 183
341 343 344 345 347 345 342 340 342 346 350 351 353 355 360 6 12 19 21 29 44 50 63 83 95 96 93 97 106 111 114 120 127 133 140 150 160 167 173 182 185 178 179 178
342 343 344 346 346 347 343 343 344 346 351 354 356 359 6 15 24 29 34 43 50 57 70 82 90 95 97 101 104 109 114 119 125 130 134 138 144 154 166 175 177 177 179 178
343 344 345 346 346 346 343 342 343 345 350 355 358 3 10 18 25 31 43 55 67 76 77 78 85 92 98 102 106 110 114 118 122 122 125 137 152 160 168 179 186 189 194 201
Height
5836 5832 5829 5826 5823 5820 5817 5812 5807 5804 5799 5795 5790 5785 5780 5775 5770 5766 5762 5757 5752 5747 5743 5739 5737 5734 5732 5728 5724 5720 5718 5718 5717 5717 5717 5714 5713 5712 5711 5708 5704 5701 5699 5696
5832 5827 5823 5821 5816 5812 5809 5805 5801 5796 5791 5786 5780 5775 5769 5763 5757 5752 5747 5742 5737 5732 5729 5727 5723 5718 5714 5712 5709 5706 5703 5702 5701 5700 5701 5701 5701 5699 5698 5698 5696 5693 5692 5690
5827 5823 5819 5816 5811 5807 5802 5796 5791 5786 5782 5776 5770 5763 5756 5749 5744 5740 5734 5727 5722 5718 5711 5707 5703 5699 5696 5694 5691 5688 5686 5684 5684 5683 5683 5683 5684 5687 5686 5686 5686 5685 5684 5682
5821 5818 5813 5810 5803 5799 5794 5789 5783 5777 5770 5763 5756 5749 5743 5735 5733 5725 5715 5706 5701 5696 5689 5683 5678 5674 5672 5669 5666 5664 5663 5662 5662 5662 5662 5663 5665 5669 5671 5673 5675 5674 5675 5674
5814 5810 5805 5800 5794 5790 5785 5779 5773 5766 5760 5753 5744 5738 5731 5719 5709 5700 5692 5684 5675 5669 5664 5659 5654 5648 5646 5645 5641 5638 5636 5634 5635 5637 5639 5640 5645 5649 5654 5658 5661 5662 5664 5665
5806 5802 5798 5795 5789 5782 5776 5768 5762 5754 5747 5739 5729 5721 5714 5700 5688 5679 5669 5660 5650 5641 5635 5629 5622 5614 5614 5615 5613 5612 5609 5607 5608 5609 5612 5615 5620 5629 5635 5640 5645 5649 5653 5655
5802 5797 5791 5788 5782 5776 5768 5760 5750 5739 5730 5719 5707 5696 5687 5675 5664 5653 5643 5634 5624 5615 5612 5607 5597 5588 5587 5587 5586 5585 5584 5582 5583 5586 5589 5593 5597 5604 5613 5623 5629 5636 5641 5644
5796 5791 5787 5780 5774 5766 5756 5744 5734 5722 5710 5698 5686 5673 5661 5650 5640 5629 5617 5607 5598 5589 5586 5582 5575 5568 5566 5565 5565 5564 5566 5568 5569 5570 5574 5578 5583 5587 5592 5603 5615 5623 5629 5633
5789 5785 5777 5768 5760 5752 5740 5728 5716 5703 5690 5675 5661 5647 5635 5625 5615 5605 5596 5588 5580 5573 5570 5566 5561 5555 5552 5550 5549 5549 5550 5552 5553 5554 5555 5559 5564 5571 5577 5585 5598 5608 5616 5622
5780 5774 5769 5759 5749 5738 5725 5713 5699 5683 5667 5651 5636 5627 5616 5606 5597 5588 5580 5574 5569 5563 5558 5554 5549 5544 5540 5538 5535 5534 5535 5536 5537 5538 5539 5541 5547 5554 5560 5567 5576 5590 5601 5609
5775 5768 5760 5750 5737 5724 5709 5694 5678 5662 5646 5633 5620 5612 5601 5593 5587 5580 5574 5568 5560 5553 5546 5541 5536 5531 5527 5524 5521 5518 5517 5518 5519 5520 5520 5523 5530 5537 5545 5551 5559 5575 5588 5596
5767 5757 5747 5735 5721 5706 5690 5674 5658 5642 5632 5621 5609 5600 5594 5587 5579 5571 5563 5555 5547 5539 5530 5523 5516 5510 5506 5504 5502 5500 5500 5502 5503 5504 5505 5508 5512 5514 5513 5525 5544 5564 5573 5582
5755 5744 5734 5720 5704 5688 5672 5656 5640 5628 5616 5607 5600 5594 5587 5579 5570 5560 5549 5537 5525 5515 5505 5497 5490 5485 5481 5480 5480 5481 5482 5485 5489 5490 5490 5492 5495 5493 5498 5517 5538 5555 5564 5573
5745 5734 5722 5706 5689 5673 5656 5639 5626 5614 5606 5599 5592 5585 5577 5567 5556 5543 5530 5515 5499 5484 5475 5469 5464 5462 5460 5459 5459 5461 5465 5470 5475 5479 5480 5482 5482 5487 5502 5518 5533 5547 5558 5569
5736 5723 5706 5690 5674 5657 5640 5625 5614 5606 5598 5591 5583 5574 5564 5553 5540 5527 5513 5497 5480 5464 5452 5444 5440 5440 5441 5443 5444 5447 5452 5457 5464 5469 5473 5477 5480 5489 5501 5514 5526 5539 5555 5565
5725 5711 5695 5679 5662 5643 5626 5613 5605 5599 5592 5584 5576 5566 5554 5541 5529 5516 5502 5484 5467 5452 5439 5430 5424 5424 5425 5429 5433 5437 5442 5447 5453 5460 5468 5473 5480 5494 5506 5515 5526 5538 5552 5561
5714 5701 5686 5669 5650 5631 5617 5608 5601 5594 5586 5578 5569 5558 5545 5532 5521 5508 5494 5477 5460 5444 5432 5423 5416 5415 5416 5419 5424 5429 5435 5439 5446 5454 5461 5469 5482 5497 5507 5517 5528 5539 5551 5560
5703 5688 5672 5655 5638 5625 5615 5606 5598 5590 5581 5573 5564 5552 5538 5525 5514 5501 5488 5474 5457 5442 5430 5421 5413 5412 5412 5414 5417 5422 5428 5434 5440 5447 5456 5470 5483 5492 5503 5515 5528 5540 5552 5559
5694 5679 5662 5648 5632 5619 5610 5602 5595 5586 5578 5569 5559 5546 5534 5520 5508 5496 5484 5471 5456 5444 5434 5425 5418 5412 5410 5409 5412 5416 5422 5429 5437 5445 5456 5471 5481 5493 5504 5514 5526 5539 5550 5559
5687 5671 5657 5643 5628 5615 5608 5599 5592 5584 5575 5566 5554 5542 5531 5518 5506 5495 5483 5469 5456 5447 5438 5429 5422 5415 5410 5409 5410 5414 5420 5429 5438 5448 5462 5476 5487 5499 5508 5519 5530 5542 5552 5561
5681 5667 5653 5639 5626 5613 5604 5596 5589 5581 5573 5563 5552 5540 5529 5518 5506 5495 5483 5473 5462 5449 5441 5432 5424 5422 5418 5417 5418 5421 5426 5435 5445 5456 5470 5483 5494 5504 5513 5524 5535 5545 5554 5562
5675 5662 5649 5634 5622 5611 5601 5593 5586 5578 5570 5561 5551 5540 5530 5519 5508 5498 5486 5475 5464 5455 5447 5438 5429 5425 5427 5429 5430 5433 5439 5448 5459 5470 5479 5489 5500 5511 5520 5531 5541 5550 5557 5564
5670 5658 5644 5629 5617 5606 5598 5591 5584 5577 5570 5560 5549 5538 5530 5520 5509 5500 5491 5481 5471 5463 5456 5449 5442 5437 5438 5441 5443 5448 5456 5466 5474 5480 5488 5497 5508 5518 5527 5536 5545 5554 5560 5565
5667 5654 5640 5626 5614 5604 5596 5590 5584 5577 5570 5560 5550 5540 5530 5522 5515 5507 5499 5491 5481 5474 5466 5461 5458 5456 5455 5457 5460 5466 5472 5478 5485 5493 5501 5510 5519 5527 5533 5541 5549 5555 5561 5565
5662 5649 5636 5623 5612 5602 5594 5588 5581 5576 5571 5562 5553 5544 5534 5524 5518 5512 5506 5501 5494 5488 5482 5476 5473 5473 5474 5478 5482 5487 5492 5498 5504 5510 5516 5522 5528 5534 5539 5545 5551 5557 5562 5566
5657 5644 5632 5619 5609 5600 5591 5585 5579 5573 5569 5562 5554 5547 5538 5530 5526 5522 5518 5513 5507 5502 5499 5496 5494 5494 5495 5497 5499 5503 5507 5512 5517 5522 5526 5530 5534 5538 5542 5546 5553 5559 5564 5568
5651 5639 5628 5617 5606 5598 5589 5583 5578 5574 5569 5562 5555 5549 5541 5535 5531 5528 5526 5523 5520 5517 5514 5512 5510 5510 5511 5512 5513 5516 5518 5521 5524 5527 5530 5533 5537 5540 5544 5548 5554 5559 5564 5569